Showing default

LEMUR 2 TILLINFINITY, 63356

Orbit data source: Space-Track

LEMUR 2 TILLINFINITY, 63356 is a payload satellite owned by OroraTech (US) in SSO that was launched on Wed, 26 Mar 2025 UTC via an ELECTRON launch vehicle from the Rocket Lab Launch Complex (RLLC). Payload-class satellites include a variety of spacecraft equipped with specific instruments for various scientific and technological missions. These include communications satellites like Starlink; space stations such as the ISS; scientific satellites like the Hubble; Earth observation satellites from companies like Planet Labs, Umbra, and HawkEye 360; GPS; miniature CubeSats for education and research; and military/defense satellites.

Loading next visibility...
Identifier
63356, 2025-061F
Orbit
SSO
Last TLE update
18 hours ago
Origin
Manufacturer
Spire/Glasgow
Mission
Operational Commercial Imaging
Bus & Motor
CUBESAT 6U, Unknown motor
Mass
~15 kg wet, ~15 kg dry
Launch date (UTC)
2025-03-26 (3 months ago)
Launch vehicle
ELECTRON
Launch site
Rocket Lab Launch Complex (RLLC)
Object type
Payload
Rocket body
Debris
Shape & HBR
Box + 2 Pan, 0.4 m
Radar Cross Section
0.065 m², Medium (>0.1 m² and < 1m²)

Expand to show TLE details & history

TLE from 18 hours ago
0 LEMUR 2 TILLINFINITY
1 63356U 25061F   25183.39586268  .00002851  00000-0  17483-3 0  9995
2 63356  97.5193 158.3042 0020262  18.0627 342.1318 15.10788176 14751
Epoch: 2025-07-02T09:30Z
TLE epoch observation values (Epoch: 2025-07-02T09:30:02.535Z)
Latitude
-0.00006°
Longitude
95.11607°
Altitude
523.54 km
Speed
7.609 km/s
True Right ascension
10h 33m 13s
True Declination
0° 00' 00"
Sunlit
Object was in daylight at epoch
Visualization orbit readout
Latitude
38.73866°
Longitude
-78.09742°
Altitude
547.401 km
Speed
7.588 km/s
Apparent Right ascension
01h 03m 43s
Apparent Declination
1° 35' 34"
Sunlit
Object is in daylight
Visualization observer readout
Local Sidereal Time
15:21:36
Azimuth
45.805° ENE
Elevation
-37.895°
Doppler factor
1
Orbital elements
Apogee altitude
544.777 km
Perigee altitude
516.779 km
Semi-major axis
6,908.915 km
Eccentricity
0.00203
Inclination
97.5193°
RAAN
158.3042°
Arg. of periapsis
18.0627°
True anomaly
Unknown
Mean anomaly
342.1318°
Eccentric anomaly
Unknown
Mean motion
3.77945 °/min
Orbital period
95.25 mins
BSTAR
0.00017483
Loading maneuver chart data...
Loading SW <> Apogee altitude chart data...
Loading historical data...
Loading historical data...
Loading historical data...
Loading historical data...
Loading historical data...
Loading historical data...
Loading historical data...

LEMUR 2 TILLINFINITY Visibility forecast

Observer location: undefined°, undefined°

Span
Click to sort rows by Start time (UTC) header in descending order
Start Az.
Max El. time (UTC)
Max El. Az.
Max El.
End time (UTC)
End Az.
7 mins2025-07-03 11:29:24.152Z1.208° NNE2025-07-03 11:32:24.152Z307.36° NW38.506°2025-07-03 11:36:24.152Z208.094° SW
5 mins2025-07-03 22:12:24.152Z149.785° SSE2025-07-03 22:14:24.152Z74.706° E41.874°2025-07-03 22:17:24.152Z356.388° N
|